| time (UTC) | temp C | wind direction | speed KPH | gust KPH | rain 1hr cm | rain 24hr cm | rain mn cm | humidity % | barometer mb |
| 20260505101006 | 17 | 352 | 0.0 | 6.4 | 0.00 | 0.00 | 0.00 | 77 | 1007.0 |
| 20260505100507 | 18 | 192 | 0.0 | 8.0 | 0.00 | 0.00 | 0.00 | 76 | 1006.9 |
| 20260505100021 | 18 | 269 | 0.0 | 8.0 | 0.00 | 0.00 | 0.00 | 75 | 1006.6 |
| 20260505095510 | 18 | 226 | 1.6 | 11.3 | 0.00 | 0.00 | 0.00 | 74 | 1006.6 |
| 20260505095009 | 18 | 215 | 3.2 | 11.3 | 0.00 | 0.00 | 0.00 | 74 | 1006.5 |
| 20260505094524 | 18 | 135 | 1.6 | 9.7 | 0.00 | 0.00 | 0.00 | 74 | 1006.2 |
| 20260505094014 | 18 | 146 | 1.6 | 9.7 | 0.00 | 0.00 | 0.00 | 74 | 1006.3 |
| 20260505093510 | 17 | 205 | 0.0 | 11.3 | 0.00 | 0.00 | 0.00 | 73 | 1005.9 |
| 20260505093027 | 17 | 348 | 0.0 | 11.3 | 0.00 | 0.00 | 0.00 | 73 | 1005.9 |
| 20260505092512 | 17 | 144 | 0.0 | 6.4 | 0.00 | 0.00 | 0.00 | 73 | 1005.9 |
| 20260505092012 | 17 | 97 | 0.0 | 6.4 | 0.00 | 0.00 | 0.00 | 72 | 1006.0 |
| 20260505091009 | 17 | 277 | 1.6 | 9.7 | 0.00 | 0.00 | 0.00 | 72 | 1005.8 |
| 20260505090508 | 17 | 143 | 1.6 | 4.8 | 0.00 | 0.00 | 0.00 | 72 | 1005.7 |
| 20260505090038 | 17 | 103 | 0.0 | 4.8 | 0.00 | 0.00 | 0.00 | 71 | 1005.6 |
| 20260505085509 | 17 | 98 | 0.0 | 3.2 | 0.00 | 0.00 | 0.00 | 71 | 1005.7 |
| 20260505085007 | 17 | 189 | 0.0 | 6.4 | 0.00 | 0.00 | 0.00 | 71 | 1005.6 |
| 20260505084530 | 17 | 165 | 0.0 | 6.4 | 0.00 | 0.00 | 0.00 | 71 | 1005.6 |
| 20260505084010 | 17 | 117 | 1.6 | 6.4 | 0.00 | 0.00 | 0.00 | 70 | 1005.6 |
| 20260505083511 | 17 | 194 | 0.0 | 12.9 | 0.00 | 0.00 | 0.00 | 70 | 1005.5 |
| 20260505083035 | 17 | 182 | 0.0 | 12.9 | 0.00 | 0.00 | 0.00 | 70 | 1005.5 |
| 20260505082510 | 17 | 167 | 1.6 | 9.7 | 0.00 | 0.00 | 0.00 | 70 | 1005.6 |
| 20260505082006 | 17 | 141 | 1.6 | 12.9 | 0.00 | 0.00 | 0.00 | 70 | 1005.5 |
| 20260505081512 | 17 | 36 | 3.2 | 12.9 | 0.00 | 0.00 | 0.00 | 70 | 1005.7 |
| 20260505081008 | 17 | 139 | 1.6 | 6.4 | 0.00 | 0.00 | 0.00 | 70 | 1005.9 |
| 20260505080505 | 17 | 180 | 1.6 | 6.4 | 0.00 | 0.00 | 0.00 | 70 | 1006.0 |
| 20260505080012 | 17 | 166 | 0.0 | 8.0 | 0.00 | 0.00 | 0.00 | 70 | 1006.0 |
| 20260505075504 | 17 | 107 | 3.2 | 8.0 | 0.00 | 0.00 | 0.00 | 70 | 1006.0 |
| 20260505075003 | 17 | 98 | 0.0 | 6.4 | 0.00 | 0.00 | 0.00 | 71 | 1006.2 |
| 20260505074514 | 17 | 90 | 0.0 | 3.2 | 0.00 | 0.00 | 0.00 | 71 | 1006.2 |
| 20260505074003 | 17 | 148 | 0.0 | 3.2 | 0.00 | 0.00 | 0.00 | 71 | 1006.3 |
| 20260505073503 | 17 | 123 | 0.0 | 3.2 | 0.00 | 0.00 | 0.00 | 71 | 1006.5 |
| 20260505073005 | 17 | 249 | 0.0 | 4.8 | 0.00 | 0.00 | 0.00 | 70 | 1006.6 |
| 20260505072504 | 17 | 166 | 0.0 | 4.8 | 0.00 | 0.00 | 0.00 | 70 | 1006.5 |
| 20260505072004 | 17 | 141 | 0.0 | 3.2 | 0.00 | 0.00 | 0.00 | 70 | 1006.5 |
| 20260505071522 | 17 | 134 | 0.0 | 1.6 | 0.00 | 0.00 | 0.00 | 70 | 1006.6 |
| 20260505071003 | 17 | 134 | 0.0 | 3.2 | 0.00 | 0.00 | 0.00 | 70 | 1006.7 |
| 20260505070508 | 17 | 134 | 0.0 | 4.8 | 0.00 | 0.00 | 0.00 | 69 | 1006.6 |
| 20260505070018 | 17 | 199 | 0.0 | 4.8 | 0.00 | 0.00 | 0.00 | 69 | 1006.8 |
| 20260505065507 | 17 | 229 | 0.0 | 3.2 | 0.00 | 0.00 | 0.00 | 69 | 1006.9 |
| 20260505065006 | 17 | 125 | 0.0 | 3.2 | 0.00 | 0.00 | 0.00 | 69 | 1006.8 |
| 20260505064513 | 17 | 190 | 0.0 | 3.2 | 0.00 | 0.00 | 0.00 | 69 | 1006.8 |
| 20260505064007 | 17 | 123 | 0.0 | 9.7 | 0.00 | 0.00 | 0.00 | 69 | 1006.9 |
| 20260505063506 | 18 | 169 | 0.0 | 9.7 | 0.00 | 0.00 | 0.00 | 69 | 1006.9 |
| 20260505063016 | 18 | 250 | 0.0 | 4.8 | 0.00 | 0.00 | 0.00 | 68 | 1007.0 |
| 20260505062503 | 18 | 252 | 1.6 | 4.8 | 0.00 | 0.00 | 0.00 | 68 | 1007.0 |
| 20260505062003 | 18 | 162 | 0.0 | 4.8 | 0.00 | 0.00 | 0.00 | 68 | 1007.1 |
| 20260505061522 | 18 | 169 | 0.0 | 4.8 | 0.00 | 0.00 | 0.00 | 68 | 1007.2 |
| 20260505061007 | 18 | 192 | 0.0 | 9.7 | 0.00 | 0.00 | 0.00 | 68 | 1007.4 |
| 20260505060509 | 18 | 144 | 1.6 | 9.7 | 0.00 | 0.00 | 0.00 | 67 | 1007.5 |
| 20260505060013 | 18 | 246 | 1.6 | 9.7 | 0.00 | 0.00 | 0.00 | 67 | 1007.6 |
| 20260505055510 | 18 | 211 | 1.6 | 6.4 | 0.00 | 0.00 | 0.00 | 67 | 1007.5 |
| 20260505055007 | 18 | 114 | 1.6 | 6.4 | 0.00 | 0.00 | 0.00 | 67 | 1007.6 |
| 20260505054522 | 18 | 52 | 0.0 | 3.2 | 0.00 | 0.00 | 0.00 | 67 | 1007.8 |
| 20260505054008 | 18 | 195 | 1.6 | 8.0 | 0.00 | 0.00 | 0.00 | 67 | 1007.7 |
| 20260505053508 | 18 | 189 | 1.6 | 8.0 | 0.00 | 0.00 | 0.00 | 67 | 1007.9 |
| 20260505053015 | 18 | 166 | 1.6 | 4.8 | 0.00 | 0.00 | 0.00 | 66 | 1007.9 |
| 20260505052506 | 18 | 202 | 0.0 | 4.8 | 0.00 | 0.00 | 0.00 | 66 | 1007.9 |
| 20260505052008 | 18 | 177 | 0.0 | 4.8 | 0.00 | 0.00 | 0.00 | 66 | 1007.9 |
| 20260505051518 | 18 | 185 | 0.0 | 6.4 | 0.00 | 0.00 | 0.00 | 66 | 1008.1 |
| 20260505051003 | 18 | 151 | 0.0 | 6.4 | 0.00 | 0.00 | 0.00 | 66 | 1008.0 |
| 20260505050503 | 18 | 202 | 1.6 | 4.8 | 0.00 | 0.00 | 0.00 | 66 | 1008.0 |
| 20260505041518 | 19 | 213 | 0.0 | 6.4 | 0.00 | 0.00 | 0.00 | 66 | 1008.4 |
| 20260505041007 | 19 | 213 | 1.6 | 6.4 | 0.00 | 0.00 | 0.00 | 66 | 1008.3 |
| 20260505040507 | 19 | 266 | 0.0 | 6.4 | 0.00 | 0.00 | 0.00 | 66 | 1008.5 |
| 20260505040009 | 19 | 34 | 0.0 | 4.8 | 0.00 | 0.00 | 0.00 | 66 | 1008.5 |
| 20260505035506 | 19 | 261 | 0.0 | 6.4 | 0.00 | 0.00 | 0.00 | 66 | 1008.5 |
| 20260505035005 | 19 | 142 | 0.0 | 6.4 | 0.00 | 0.00 | 0.00 | 66 | 1008.6 |
| 20260505034517 | 19 | 116 | 0.0 | 6.4 | 0.00 | 0.00 | 0.00 | 66 | 1008.6 |
| 20260505034006 | 19 | 168 | 1.6 | 4.8 | 0.00 | 0.00 | 0.00 | 65 | 1008.5 |
| 20260505033511 | 19 | 145 | 0.0 | 3.2 | 0.00 | 0.00 | 0.00 | 65 | 1008.5 |
| 20260505033030 | 19 | 192 | 0.0 | 3.2 | 0.00 | 0.00 | 0.00 | 65 | 1008.5 |
| 20260505032511 | 19 | 209 | 0.0 | 4.8 | 0.00 | 0.00 | 0.00 | 65 | 1008.6 |
| 20260505032007 | 19 | 207 | 0.0 | 4.8 | 0.00 | 0.00 | 0.00 | 64 | 1008.6 |
| 20260505031520 | 20 | 115 | 0.0 | 4.8 | 0.00 | 0.00 | 0.00 | 64 | 1008.6 |
| 20260505031007 | 20 | 259 | 1.6 | 6.4 | 0.00 | 0.00 | 0.00 | 64 | 1008.6 |
| 20260505030507 | 20 | 111 | 0.0 | 9.7 | 0.00 | 0.00 | 0.00 | 64 | 1008.4 |
| 20260505030024 | 20 | 242 | 1.6 | 9.7 | 0.00 | 0.00 | 0.00 | 64 | 1008.3 |
| 20260505025508 | 20 | 145 | 1.6 | 9.7 | 0.00 | 0.00 | 0.00 | 64 | 1008.3 |
| 20260505025006 | 20 | 227 | 0.0 | 4.8 | 0.00 | 0.00 | 0.00 | 64 | 1008.1 |
| 20260505024530 | 20 | 246 | 0.0 | 4.8 | 0.00 | 0.00 | 0.00 | 64 | 1008.1 |
| 20260505024003 | 20 | 230 | 0.0 | 6.4 | 0.00 | 0.00 | 0.00 | 64 | 1008.1 |
| 20260505023506 | 20 | 84 | 1.6 | 6.4 | 0.00 | 0.00 | 0.00 | 64 | 1008.0 |
| 20260505023015 | 20 | 142 | 0.0 | 6.4 | 0.00 | 0.00 | 0.00 | 64 | 1007.9 |
| 20260505022508 | 20 | 142 | 0.0 | 6.4 | 0.00 | 0.00 | 0.00 | 63 | 1007.9 |
| 20260505022009 | 20 | 142 | 0.0 | 3.2 | 0.00 | 0.00 | 0.00 | 63 | 1007.9 |
| 20260505021536 | 20 | 183 | 0.0 | 4.8 | 0.00 | 0.00 | 0.00 | 62 | 1007.8 |
| 20260505021011 | 20 | 67 | 1.6 | 4.8 | 0.00 | 0.00 | 0.00 | 62 | 1007.7 |
| 20260505020510 | 20 | 179 | 0.0 | 3.2 | 0.00 | 0.00 | 0.00 | 62 | 1007.7 |
| 20260505020020 | 20 | 165 | 0.0 | 6.4 | 0.00 | 0.00 | 0.00 | 61 | 1007.7 |
| 20260505015512 | 20 | 223 | 0.0 | 6.4 | 0.00 | 0.00 | 0.00 | 61 | 1007.6 |
| 20260505015009 | 20 | 202 | 0.0 | 4.8 | 0.00 | 0.00 | 0.00 | 61 | 1007.6 |
| 20260505014525 | 20 | 133 | 0.0 | 8.0 | 0.00 | 0.00 | 0.00 | 61 | 1007.5 |
| 20260505014006 | 21 | 175 | 1.6 | 8.0 | 0.00 | 0.00 | 0.00 | 60 | 1007.4 |
| 20260505013508 | 21 | 142 | 1.6 | 4.8 | 0.00 | 0.00 | 0.00 | 60 | 1007.4 |
| 20260505013014 | 21 | 218 | 0.0 | 4.8 | 0.00 | 0.00 | 0.00 | 60 | 1007.4 |
| 20260505012504 | 21 | 251 | 1.6 | 6.4 | 0.00 | 0.00 | 0.00 | 60 | 1007.4 |
| 20260505012011 | 21 | 167 | 1.6 | 8.0 | 0.00 | 0.00 | 0.00 | 60 | 1007.3 |
| 20260505011519 | 21 | 226 | 0.0 | 8.0 | 0.00 | 0.00 | 0.00 | 59 | 1007.2 |
| 20260505011008 | 21 | 148 | 0.0 | 8.0 | 0.00 | 0.00 | 0.00 | 59 | 1007.1 |
| 20260505010507 | 21 | 180 | 1.6 | 8.0 | 0.00 | 0.00 | 0.00 | 58 | 1007.1 |
| 20260505010023 | 21 | 153 | 0.0 | 11.3 | 0.00 | 0.00 | 0.00 | 58 | 1007.0 |
| 20260505005510 | 22 | 198 | 1.6 | 11.3 | 0.00 | 0.00 | 0.00 | 57 | 1007.0 |
| 20260505005011 | 22 | 176 | 0.0 | 14.5 | 0.00 | 0.00 | 0.00 | 58 | 1007.1 |
| 20260505004535 | 22 | 153 | 1.6 | 14.5 | 0.00 | 0.00 | 0.00 | 57 | 1007.0 |
| 20260505004009 | 22 | 152 | 0.0 | 6.4 | 0.00 | 0.00 | 0.00 | 57 | 1007.0 |
| 20260505003509 | 22 | 263 | 0.0 | 6.4 | 0.00 | 0.00 | 0.00 | 56 | 1007.0 |
| 20260505003024 | 22 | 134 | 0.0 | 6.4 | 0.00 | 0.00 | 0.00 | 56 | 1007.1 |
| 20260505002506 | 22 | 244 | 0.0 | 6.4 | 0.00 | 0.00 | 0.00 | 55 | 1007.1 |
| 20260505002008 | 22 | 284 | 1.6 | 16.1 | 0.00 | 0.00 | 0.00 | 56 | 1007.0 |
| 20260505001516 | 23 | 150 | 3.2 | 16.1 | 0.00 | 0.00 | 0.00 | 54 | 1007.0 |
| 20260505001008 | 23 | 138 | 1.6 | 4.8 | 0.00 | 0.00 | 0.00 | 54 | 1007.0 |
| 20260505000507 | 23 | 200 | 1.6 | 11.3 | 0.00 | 0.00 | 0.00 | 54 | 1007.1 |
| 20260505000021 | 23 | 134 | 1.6 | 11.3 | 0.00 | 0.00 | 0.00 | 53 | 1007.0 |
| 20260504235510 | 23 | 129 | 3.2 | 11.3 | 0.00 | 0.00 | 0.00 | 52 | 1007.2 |
| 20260504235015 | 23 | 119 | 1.6 | 12.9 | 0.00 | 0.00 | 0.00 | 52 | 1007.1 |
| 20260504234525 | 24 | 304 | 4.8 | 12.9 | 0.00 | 0.00 | 0.00 | 51 | 1007.2 |
| 20260504234012 | 24 | 275 | 3.2 | 14.5 | 0.00 | 0.00 | 0.00 | 51 | 1007.2 |
| 20260504233510 | 24 | 289 | 4.8 | 20.9 | 0.00 | 0.00 | 0.00 | 51 | 1007.3 |
| 20260504233024 | 24 | 200 | 3.2 | 22.5 | 0.00 | 0.00 | 0.00 | 51 | 1007.4 |
| 20260504232512 | 25 | 229 | 3.2 | 22.5 | 0.00 | 0.00 | 0.00 | 50 | 1007.4 |
| 20260504232007 | 25 | 238 | 3.2 | 19.3 | 0.00 | 0.00 | 0.00 | 50 | 1007.4 |
| 20260504231514 | 25 | 294 | 3.2 | 25.7 | 0.00 | 0.00 | 0.00 | 49 | 1007.5 |
| 20260504231007 | 25 | 117 | 6.4 | 25.7 | 0.00 | 0.00 | 0.00 | 48 | 1007.6 |
| 20260504230507 | 25 | 105 | 6.4 | 24.1 | 0.00 | 0.00 | 0.00 | 47 | 1007.6 |
| 20260504230018 | 25 | 125 | 4.8 | 16.1 | 0.00 | 0.00 | 0.00 | 48 | 1007.5 |
| 20260504225512 | 25 | 197 | 6.4 | 16.1 | 0.00 | 0.00 | 0.00 | 47 | 1007.6 |
| 20260504225002 | 25 | 89 | 4.8 | 16.1 | 0.00 | 0.00 | 0.00 | 46 | 1007.5 |
| 20260504224507 | 25 | 334 | 4.8 | 29.0 | 0.00 | 0.00 | 0.00 | 47 | 1007.5 |
| 20260504224002 | 25 | 138 | 8.0 | 29.0 | 0.00 | 0.00 | 0.00 | 46 | 1007.5 |
| 20260504223503 | 25 | 254 | 6.4 | 16.1 | 0.00 | 0.00 | 0.00 | 45 | 1007.4 |
| 20260504223008 | 25 | 234 | 4.8 | 29.0 | 0.00 | 0.00 | 0.00 | 46 | 1007.5 |
| 20260504222504 | 26 | 198 | 8.0 | 29.0 | 0.00 | 0.00 | 0.00 | 46 | 1007.6 |
| 20260504222009 | 26 | 146 | 8.0 | 20.9 | 0.00 | 0.00 | 0.00 | 45 | 1007.4 |
| 20260504221510 | 26 | 256 | 8.0 | 19.3 | 0.00 | 0.00 | 0.00 | 46 | 1007.6 |
| 20260504221006 | 26 | 246 | 1.6 | 19.3 | 0.00 | 0.00 | 0.00 | 46 | 1007.6 |
| 20260504220510 | 26 | 227 | 8.0 | 19.3 | 0.00 | 0.00 | 0.00 | 45 | 1007.6 |
| 20260504220022 | 26 | 285 | 6.4 | 19.3 | 0.00 | 0.00 | 0.00 | 46 | 1007.6 |
| 20260504215508 | 26 | 165 | 6.4 | 19.3 | 0.00 | 0.00 | 0.00 | 47 | 1007.7 |
| 20260504215010 | 26 | 241 | 4.8 | 24.1 | 0.00 | 0.00 | 0.00 | 47 | 1007.7 |
| 20260504214520 | 26 | 96 | 9.7 | 24.1 | 0.00 | 0.00 | 0.00 | 46 | 1007.7 |
| 20260504214009 | 26 | 148 | 3.2 | 19.3 | 0.00 | 0.00 | 0.00 | 45 | 1007.7 |
| 20260504213502 | 26 | 129 | 8.0 | 19.3 | 0.00 | 0.00 | 0.00 | 45 | 1007.7 |
| 20260504213004 | 26 | 213 | 6.4 | 19.3 | 0.00 | 0.00 | 0.00 | 45 | 1007.8 |
| 20260504212506 | 26 | 145 | 4.8 | 17.7 | 0.00 | 0.00 | 0.00 | 45 | 1007.7 |
| 20260504212007 | 26 | 275 | 0.0 | 17.7 | 0.00 | 0.00 | 0.00 | 46 | 1007.8 |
| 20260504211510 | 26 | 101 | 6.4 | 17.7 | 0.00 | 0.00 | 0.00 | 47 | 1007.8 |
| 20260504211003 | 26 | 217 | 4.8 | 17.7 | 0.00 | 0.00 | 0.00 | 45 | 1007.9 |
| 20260504210505 | 26 | 261 | 6.4 | 22.5 | 0.00 | 0.00 | 0.00 | 45 | 1007.9 |
| 20260504210015 | 26 | 220 | 4.8 | 22.5 | 0.00 | 0.00 | 0.00 | 45 | 1008.0 |
| 20260504205508 | 26 | 266 | 4.8 | 22.5 | 0.00 | 0.00 | 0.00 | 44 | 1008.1 |
| 20260504205009 | 26 | 242 | 4.8 | 16.1 | 0.00 | 0.00 | 0.00 | 45 | 1008.2 |
| 20260504204519 | 26 | 259 | 4.8 | 17.7 | 0.00 | 0.00 | 0.00 | 47 | 1008.3 |
| 20260504204008 | 26 | 132 | 4.8 | 24.1 | 0.00 | 0.00 | 0.00 | 46 | 1008.4 |
| 20260504203510 | 26 | 207 | 8.0 | 24.1 | 0.00 | 0.00 | 0.00 | 45 | 1008.5 |
| 20260504203026 | 26 | 257 | 8.0 | 24.1 | 0.00 | 0.00 | 0.00 | 47 | 1008.6 |
| 20260504202504 | 26 | 86 | 4.8 | 25.7 | 0.00 | 0.00 | 0.00 | 47 | 1008.7 |
| 20260504202003 | 26 | 135 | 9.7 | 25.7 | 0.00 | 0.00 | 0.00 | 46 | 1008.7 |
| 20260504201508 | 26 | 190 | 6.4 | 35.4 | 0.00 | 0.00 | 0.00 | 45 | 1008.8 |
| 20260504201008 | 26 | 240 | 6.4 | 35.4 | 0.00 | 0.00 | 0.00 | 46 | 1008.8 |
| 20260504200507 | 26 | 250 | 9.7 | 29.0 | 0.00 | 0.00 | 0.00 | 46 | 1009.0 |
| 20260504200017 | 26 | 196 | 3.2 | 20.9 | 0.00 | 0.00 | 0.00 | 46 | 1009.1 |
| 20260504195506 | 26 | 122 | 6.4 | 22.5 | 0.00 | 0.00 | 0.00 | 46 | 1009.1 |
| 20260504195007 | 26 | 121 | 6.4 | 22.5 | 0.00 | 0.00 | 0.00 | 48 | 1009.2 |
| 20260504194519 | 26 | 213 | 4.8 | 16.1 | 0.00 | 0.00 | 0.00 | 46 | 1009.2 |
| 20260504194008 | 26 | 78 | 3.2 | 12.9 | 0.00 | 0.00 | 0.00 | 47 | 1009.4 |
| 20260504193509 | 26 | 136 | 4.8 | 14.5 | 0.00 | 0.00 | 0.00 | 49 | 1009.3 |
| 20260504193022 | 26 | 187 | 3.2 | 14.5 | 0.00 | 0.00 | 0.00 | 47 | 1009.4 |
| 20260504192511 | 26 | 240 | 6.4 | 19.3 | 0.00 | 0.00 | 0.00 | 47 | 1009.5 |
| 20260504192010 | 25 | 119 | 6.4 | 24.1 | 0.00 | 0.00 | 0.00 | 47 | 1009.5 |
| 20260504191524 | 25 | 244 | 6.4 | 24.1 | 0.00 | 0.00 | 0.00 | 48 | 1009.3 |
| 20260504191003 | 25 | 80 | 6.4 | 22.5 | 0.00 | 0.00 | 0.00 | 47 | 1009.5 |
| 20260504190504 | 25 | 183 | 6.4 | 25.7 | 0.00 | 0.00 | 0.00 | 46 | 1009.5 |
| 20260504190012 | 25 | 284 | 8.0 | 25.7 | 0.00 | 0.00 | 0.00 | 48 | 1009.5 |
| 20260504185506 | 25 | 298 | 6.4 | 20.9 | 0.00 | 0.00 | 0.00 | 47 | 1009.5 |
| 20260504185006 | 25 | 198 | 6.4 | 27.4 | 0.00 | 0.00 | 0.00 | 48 | 1009.5 |
| 20260504184522 | 25 | 74 | 6.4 | 27.4 | 0.00 | 0.00 | 0.00 | 47 | 1009.6 |
| 20260504184007 | 25 | 128 | 6.4 | 19.3 | 0.00 | 0.00 | 0.00 | 49 | 1009.6 |
| 20260504183509 | 25 | 220 | 6.4 | 19.3 | 0.00 | 0.00 | 0.00 | 47 | 1009.6 |
| 20260504183021 | 25 | 201 | 8.0 | 19.3 | 0.00 | 0.00 | 0.00 | 48 | 1009.6 |
| 20260504182506 | 25 | 140 | 8.0 | 19.3 | 0.00 | 0.00 | 0.00 | 46 | 1009.7 |
| 20260504182011 | 25 | 197 | 6.4 | 19.3 | 0.00 | 0.00 | 0.00 | 47 | 1009.7 |
| 20260504181523 | 25 | 133 | 6.4 | 19.3 | 0.00 | 0.00 | 0.00 | 46 | 1009.8 |
| 20260504181010 | 25 | 51 | 6.4 | 19.3 | 0.00 | 0.00 | 0.00 | 48 | 1009.8 |
| 20260504180510 | 25 | 205 | 6.4 | 16.1 | 0.00 | 0.00 | 0.00 | 46 | 1009.8 |
| 20260504180006 | 25 | 208 | 4.8 | 16.1 | 0.00 | 0.00 | 0.00 | 49 | 1009.9 |
| 20260504175504 | 25 | 171 | 3.2 | 14.5 | 0.00 | 0.00 | 0.00 | 48 | 1009.9 |
| 20260504175006 | 25 | 80 | 4.8 | 17.7 | 0.00 | 0.00 | 0.00 | 47 | 1009.9 |
| 20260504174514 | 25 | 160 | 4.8 | 20.9 | 0.00 | 0.00 | 0.00 | 48 | 1010.0 |
| 20260504174009 | 25 | 248 | 8.0 | 20.9 | 0.00 | 0.00 | 0.00 | 48 | 1010.1 |
| 20260504173511 | 25 | 334 | 6.4 | 16.1 | 0.00 | 0.00 | 0.00 | 48 | 1010.1 |
| 20260504173018 | 25 | 143 | 6.4 | 20.9 | 0.00 | 0.00 | 0.00 | 49 | 1010.2 |
| 20260504172510 | 24 | 150 | 6.4 | 25.7 | 0.00 | 0.00 | 0.00 | 48 | 1010.2 |
| 20260504172011 | 24 | 153 | 6.4 | 25.7 | 0.00 | 0.00 | 0.00 | 49 | 1010.3 |
| 20260504171524 | 24 | 218 | 4.8 | 19.3 | 0.00 | 0.00 | 0.00 | 48 | 1010.4 |
| 20260504171016 | 23 | 283 | 6.4 | 24.1 | 0.00 | 0.00 | 0.00 | 49 | 1010.4 |
| 20260504170508 | 23 | 97 | 3.2 | 24.1 | 0.00 | 0.00 | 0.00 | 48 | 1010.5 |
| 20260504151006 | 22 | 81 | 4.8 | 20.9 | 0.00 | 0.00 | 0.00 | 53 | 1011.6 |
| 20260504150510 | 21 | 229 | 1.6 | 25.7 | 0.00 | 0.00 | 0.00 | 54 | 1011.6 |
| 20260504141007 | 20 | 168 | 4.8 | 14.5 | 0.00 | 0.00 | 0.00 | 57 | 1012.0 |
| 20260504140507 | 20 | 158 | 4.8 | 19.3 | 0.00 | 0.00 | 0.00 | 56 | 1011.9 |
| 20260504130507 | 17 | 114 | 0.0 | 11.3 | 0.00 | 0.00 | 0.00 | 67 | 1011.7 |
| 20260504110506 | 12 | 132 | 0.0 | 0.0 | 0.00 | 0.00 | 0.00 | 84 | 1011.3 |